Weerstation Grootegast  Weerstation Grootegast


15 daagse weersverwachting Manchester (GB)

  • Overzicht
  • Per uur
  • 15 dagen
  • Extra
  • Vergelijk
  • Kaarten
  • Dagkaart
  • Meer »
  • Info
  • Statistieken
  • Directe link
    Temp 6h Neerslag Wind  
 08:12     16:30    Daglengte: 8:18 Morgen
00:00
10°
28.9 mm
7
06:00
10°
32.5 mm
7
12:00
10°
38.3 mm
6
18:00
43.2 mm
5
 08:11     16:31    Daglengte: 8:20 Donderdag 21 Jan
00:00
56.0 mm
5
06:00
45.9 mm
6
12:00
53.0 mm
8
18:00
73.1 mm
5
 08:09     16:33    Daglengte: 8:24 Vrijdag 22 Jan
00:00
67.3 mm
5
06:00
13.5 mm
4
12:00
 
6
Locatie info
Region: England
Latitude: 53.4796°N
Longitude: -2.2487°E
51 masl
Postcode: M3 3
Temp/Neerslag /Baro Onweer/Dauwpunt
    Temp Baro 1h Neerslag Dauwpunt Wind UV Bewolking  
 08:13     16:28    Daglengte: 8:15 Vandaag
19:00
Voelt als: 6.1°
991.0 hPa 5.2 mm
49%
8.3°
7
Windvlaag: 6.8 m/s
91%
20:00
Voelt als: 6.1°
990.2 hPa 4.9 mm
82%
8.4°
7
Windvlaag: 6.5 m/s
91%
21:00
10°
Voelt als: 6.2°
989.1 hPa 4.9 mm
82%
8.4°
8
Windvlaag: 6.7 m/s
91%
22:00
10°
Voelt als: 6.5°
988.4 hPa 4.9 mm
82%
8.6°
8
Windvlaag: 7.4 m/s
91%
23:00
10°
987.9 hPa 4.6 mm
82%
8.7°
8
Windvlaag: 7 m/s
91%
 08:12     16:30    Daglengte: 8:18 Morgen
00:00
10°
Voelt als: 6.8°
987.2 hPa 4.5 mm
82%
8.8°
7
Windvlaag: 6.7 m/s
91%
01:00
10°
Voelt als: 6.8°
986.3 hPa 5.4 mm
82%
8.8°
7
Windvlaag: 6.3 m/s
91%
02:00
10°
Voelt als: 6.9°
985.7 hPa 5.3 mm
82%
8.8°
7
Windvlaag: 6.1 m/s
91%
03:00
10°
Voelt als: 6.8°
985.2 hPa 5.3 mm
82%
8.8°
7
Windvlaag: 6.1 m/s
91%
04:00
10°
Voelt als: 7.0°
984.5 hPa 5.8 mm
82%
8.8°
7
Windvlaag: 6.2 m/s
91%
05:00
10°
Voelt als: 6.9°
983.8 hPa 5.5 mm
82%
8.7°
7
Windvlaag: 5.9 m/s
91%
06:00
10°
Voelt als: 6.8°
983.3 hPa 5.3 mm
82%
8.5°
7
Windvlaag: 5.5 m/s
91%
07:00
10°
Voelt als: 6.6°
982.9 hPa 5.5 mm
82%
8.4°
7
Windvlaag: 5.9 m/s
91%
08:00
10°
Voelt als: 6.6°
982.4 hPa 5.8 mm
82%
8.4°
7
Windvlaag: 6.2 m/s
91%
09:00
10°
Voelt als: 6.7°
982.0 hPa 6.4 mm
82%
8.4°
7
Windvlaag: 6.2 m/s
91%
10:00
10°
Voelt als: 6.8°
981.3 hPa 6.7 mm
82%
8.3°
6
Windvlaag: 5.9 m/s
91%
11:00
10°
Voelt als: 6.8°
980.5 hPa 6.6 mm
82%
8.4°
6
Windvlaag: 6.2 m/s
91%
12:00
10°
Voelt als: 6.7°
979.5 hPa 7.3 mm
82%
8.4°
6
Windvlaag: 6.3 m/s
91%
13:00
10°
Voelt als: 6.7°
978.5 hPa 7.3 mm
82%
8.4°
7
Windvlaag: 6.6 m/s
91%
14:00
10°
Voelt als: 6.6°
977.6 hPa 7.3 mm
82%
8.1°
6
Windvlaag: 6.7 m/s
91%
15:00
Voelt als: 6.3°
976.6 hPa 7.1 mm
82%
7.6°
6
Windvlaag: 3.4 m/s
91%
16:00
Voelt als: 6.0°
975.9 hPa 6.8 mm
82%
7.4°
6
Windvlaag: 1.8 m/s
89%
17:00
Voelt als: 5.9°
975.4 hPa 7.2 mm
82%
7.4°
6
Windvlaag: 0.4 m/s
90%
18:00
Voelt als: 5.4°
974.8 hPa 7.5 mm
82%
6.8°
5
Windvlaag: -0.6 m/s
89%
19:00
Voelt als: 4.2°
974.7 hPa 7.8 mm
82%
6.0°
4
Windvlaag: -1 m/s
90%
20:00
Voelt als: 2.8°
974.6 hPa 9.2 mm
82%
4.7°
4
Windvlaag: -0.3 m/s
91%
21:00
Voelt als: 1.6°
973.9 hPa 10.2 mm
82%
3.7°
4
Windvlaag: -0.6 m/s
91%
22:00
Voelt als: -0.7°
974.0 hPa 9.7 mm
82%
2.0°
4
Windvlaag: -0.3 m/s
91%
23:00
Voelt als: -1.2°
973.6 hPa 9.9 mm
82%
1.8°
4
Windvlaag: 0 m/s
91%
 08:11     16:31    Daglengte: 8:20 Donderdag 21 Jan
00:00
Voelt als: -1.3°
973.3 hPa 9.3 mm
82%
2.1°
5
Windvlaag: 0.1 m/s
91%
01:00
Voelt als: -1.4°
973.5 hPa 9.1 mm
82%
2.0°
6
Windvlaag: 0.7 m/s
87%
02:00
Voelt als: -1.8°
974.2 hPa 12.3 mm
82%
1.9°
6
Windvlaag: 2.7 m/s
70%
03:00
Voelt als: -1.5°
975.3 hPa 12.3 mm
82%
1.0°
6
Windvlaag: 1.8 m/s
61%
04:00
Voelt als: -1.9°
976.3 hPa
81%
0.4°
7
Windvlaag: 3.8 m/s
31%
05:00
Voelt als: -1.7°
977.3 hPa
74%
-0.0°
6
Windvlaag: 3.7 m/s
35%
06:00
Voelt als: -2.3°
978.0 hPa 12.2 mm
73%
0.6°
6
Windvlaag: 5.3 m/s
65%
07:00
Voelt als: -2.2°
978.5 hPa 8.8 mm
74%
0.5°
6
Windvlaag: 6 m/s
33%
08:00
Voelt als: -2.4°
978.6 hPa 12.8 mm
69%
0.3°
6
Windvlaag: 6.4 m/s
77%
09:00
Voelt als: -2.1°
979.0 hPa 8.9 mm
80%
0.3°
6
Windvlaag: 5.8 m/s
63%
10:00
Voelt als: -1.8°
979.3 hPa 9.1 mm
81%
0.9°
6
Windvlaag: 5.1 m/s
67%
11:00
Voelt als: -1.2°
979.7 hPa
72%
0.8°
7
Windvlaag: 5.2 m/s
59%
12:00
Voelt als: -0.5°
979.7 hPa 13.3 mm
69%
0.6°
8
Windvlaag: 5.1 m/s
69%
13:00
Voelt als: -0.3°
980.0 hPa 9.6 mm
82%
1.1°
8
Windvlaag: 4.1 m/s
79%
14:00
Voelt als: -0.1°
980.6 hPa 9.6 mm
82%
1.7°
7
Windvlaag: 2 m/s
73%
15:00
Voelt als: -0.4°
980.6 hPa 13.5 mm
100%
2.3°
7
Windvlaag: 1.5 m/s
82%
16:00
Voelt als: -0.2°
981.5 hPa 13.5 mm
100%
1.8°
7
Windvlaag: 1.3 m/s
62%
17:00
Voelt als: -0.2°
982.0 hPa 13.5 mm
99%
1.6°
6
Windvlaag: 1.4 m/s
69%
18:00
Voelt als: -0.4°
982.5 hPa 13.4 mm
100%
1.4°
5
Windvlaag: 1.8 m/s
81%
19:00
Voelt als: -0.8°
982.9 hPa 13.5 mm
100%
1.4°
5
Windvlaag: 2 m/s
80%
20:00
Voelt als: -1.0°
983.3 hPa 13.4 mm
100%
1.5°
5
Windvlaag: 2.4 m/s
90%
21:00
Voelt als: -1.0°
983.8 hPa 13.4 mm
100%
1.6°
6
Windvlaag: 2.5 m/s
80%
22:00
Voelt als: -0.7°
984.3 hPa 13.4 mm
99%
1.4°
5
Windvlaag: 2.5 m/s
81%
23:00
Voelt als: -1.0°
984.9 hPa
96%
1.2°
5
Windvlaag: 2.5 m/s
67%
 08:09     16:33    Daglengte: 8:24 Vrijdag 22 Jan
00:00
Voelt als: -1.1°
985.5 hPa 13.5 mm
99%
1.1°
5
Windvlaag: 2.5 m/s
51%
01:00
Voelt als: -1.1°
986.1 hPa 13.5 mm
100%
0.4°
5
Windvlaag: 2.4 m/s
40%
02:00
Voelt als: -1.3°
986.6 hPa
100%
0.4°
5
Windvlaag: 1.9 m/s
34%
03:00
Voelt als: -1.4°
987.3 hPa
97%
0.3°
5
Windvlaag: 2.2 m/s
41%
04:00
Voelt als: -1.5°
987.7 hPa
98%
0.1°
4
Windvlaag: 2.1 m/s
38%
05:00
Voelt als: -1.4°
988.2 hPa
95%
0.0°
4
Windvlaag: 2.1 m/s
33%
06:00
Voelt als: -1.6°
988.8 hPa
81%
-0.2°
4
Windvlaag: 1.8 m/s
20%
07:00
Voelt als: -1.4°
989.4 hPa
29%
-0.0°
4
Windvlaag: 3.4 m/s
24%
08:00
Voelt als: -1.3°
989.9 hPa
30%
0.2°
4
Windvlaag: 3.4 m/s
24%
09:00
Voelt als: -1.1°
990.5 hPa
27%
0.4°
4
Windvlaag: 3.7 m/s
29%
10:00
Voelt als: -0.7°
991.0 hPa
85%
0.6°
5
Windvlaag: 3.5 m/s
35%
11:00
Voelt als: -0.3°
991.6 hPa
85%
1.2°
5
Windvlaag: 3.5 m/s
35%
12:00
Voelt als: 0.2°
992.0 hPa
32%
1.4°
6
Windvlaag: 2.3 m/s
35%
13:00
Voelt als: 0.4°
991.1 hPa
30%
1.8°
6
Windvlaag: 12.3 m/s
40%
14:00
Voelt als: 0.0°
991.3 hPa 22.6 mm
80%
1.8°
5
Windvlaag: 11.2 m/s
49%
15:00
Voelt als: -0.1°
991.6 hPa
75%
1.8°
5
Windvlaag: 10.7 m/s
45%
16:00
Voelt als: -0.5°
991.9 hPa
72%
1.8°
5
Windvlaag: 11 m/s
54%
17:00
Voelt als: -0.7°
992.1 hPa 22.8 mm
84%
1.5°
4
Windvlaag: 9.7 m/s
62%
Temp/Neerslag /Baro Onweer/Dauwpunt
    Temp Baro Neerslag Dauwpunt Wind Bewolking  
 08:13     16:28    Daglengte: 8:15 Vandaag
21:00
10°
Voelt als: 6.2°
989.1 hPa 14.9 mm 8.4°
8
91%
 08:12     16:30    Daglengte: 8:18 Morgen
00:00
10°
Voelt als: 6.8°
987.2 hPa 14.0 mm 8.8°
7
91%
03:00
10°
Voelt als: 6.8°
985.2 hPa 15.9 mm 8.8°
7
91%
06:00
10°
Voelt als: 6.8°
983.3 hPa 16.6 mm 8.5°
7
91%
09:00
10°
Voelt als: 6.7°
982.0 hPa 17.6 mm 8.4°
7
91%
12:00
10°
Voelt als: 6.7°
979.5 hPa 20.6 mm 8.4°
6
91%
15:00
Voelt als: 6.3°
976.6 hPa 21.8 mm 7.6°
6
91%
18:00
Voelt als: 5.4°
974.8 hPa 21.4 mm 6.8°
5
89%
21:00
Voelt als: 1.6°
973.9 hPa 27.1 mm 3.7°
4
91%
 08:11     16:31    Daglengte: 8:20 Donderdag 21 Jan
00:00
Voelt als: -1.3°
973.3 hPa 28.9 mm 2.1°
5
91%
03:00
Voelt als: -1.5°
975.3 hPa 33.7 mm 1.0°
6
61%
06:00
Voelt als: -2.3°
978.0 hPa 12.2 mm 0.6°
6
65%
09:00
Voelt als: -2.1°
979.0 hPa 30.6 mm 0.3°
6
63%
12:00
Voelt als: -0.5°
979.7 hPa 22.4 mm 0.6°
8
69%
15:00
Voelt als: -0.4°
980.6 hPa 32.7 mm 2.3°
7
82%
18:00
Voelt als: -0.4°
982.5 hPa 40.4 mm 1.4°
5
81%
21:00
Voelt als: -1.0°
983.8 hPa 40.4 mm 1.6°
6
80%
 08:09     16:33    Daglengte: 8:24 Vrijdag 22 Jan
00:00
Voelt als: -1.1°
985.5 hPa 26.9 mm 1.1°
5
51%
03:00
Voelt als: -1.4°
987.3 hPa 13.5 mm 0.3°
5
41%
06:00
Voelt als: -1.6°
988.8 hPa   -0.2°
4
20%
09:00
Voelt als: -1.1°
990.5 hPa   0.4°
4
29%
12:00
Voelt als: 0.2°
992.0 hPa   1.4°
6
35%
15:00
Voelt als: -0.1°
991.6 hPa 22.6 mm 1.8°
5
45%
18:00
Voelt als: -1.0°
992.3 hPa 68.1 mm 1.4°
4
47%
21:00
Voelt als: -1.8°
993.9 hPa 44.2 mm 0.5°
3
70%
 08:08     16:35    Daglengte: 8:27 Zaterdag 23 Jan
00:00
Voelt als: -2.0°
994.3 hPa 44.2 mm 0.1°
3
70%
03:00
-0°
Voelt als: -3.1°
993.6 hPa 44.2 mm -1.2°
2
46% warningclass
06:00
-2°
Voelt als: -4.0°
992.9 hPa 44.2 mm -2.5°
2
22% warningclass
09:00
Voelt als: -1.2°
991.5 hPa 44.3 mm -1.4°
1
56% warningclass
12:00
Voelt als: 1.8°
990.1 hPa 44.5 mm -0.6°
1
90%
15:00
Voelt als: -0.3°
989.6 hPa 44.5 mm -0.9°
1
90% warningclass
18:00
-0°
Voelt als: -2.2°
989.1 hPa 44.6 mm -1.3°
2
90% warningclass
21:00
-1°
Voelt als: -3.1°
990.6 hPa 44.7 mm -1.8°
2
75% warningclass
 08:06     16:37    Daglengte: 8:31 Zondag 24 Jan
00:00
-2°
Voelt als: -3.9°
992.1 hPa 45.0 mm -2.2°
2
59% warningclass
03:00
-2°
Voelt als: -4.9°
993.9 hPa 46.2 mm -2.9°
2
32% warningclass
06:00
-3°
Voelt als: -5.9°
995.7 hPa 46.8 mm -3.7°
2
5% warningclass
09:00
-0°
Voelt als: -3.2°
997.2 hPa 46.9 mm -1.9°
2
48% warningclass
12:00
Voelt als: -0.0°
998.7 hPa 51.8 mm 0.4°
2
92%
15:00
Voelt als: -1.5°
998.9 hPa 53.1 mm -0.2°
3
87%
18:00
Voelt als: -3.0°
999.2 hPa 53.7 mm -0.9°
3
82% warningclass
21:00
Voelt als: -2.6°
1000.0 hPa 54.0 mm -0.5°
2
86% warningclass
 08:05     16:39    Daglengte: 8:34 Maandag 25 Jan
00:00
Voelt als: -2.1°
1000.7 hPa 54.1 mm -0.2°
2
91% warningclass
03:00
Voelt als: -1.1°
1001.9 hPa 54.4 mm -0.1°
2
91% warningclass
06:00
Voelt als: 0.3°
1002.9 hPa 54.5 mm 0.1°
1
92% warningclass
09:00
Voelt als: 0.5°
1006.0 hPa 54.6 mm 0.3°
1
55%
12:00
Voelt als: 0.9°
1009.0 hPa 54.7 mm 0.4°
2
19%
15:00
Voelt als: -0.3°
1010.2 hPa 54.8 mm 0.2°
2
31%
18:00
Voelt als: -1.4°
1011.6 hPa 54.9 mm 0.0°
2
42%
21:00
Voelt als: -1.1°
1012.9 hPa 55.0 mm 0.1°
2
67% warningclass
 08:04     16:41    Daglengte: 8:37 Dinsdag 26 Jan
00:00
Voelt als: -0.9°
1014.1 hPa 55.0 mm 0.2°
2
92% warningclass
03:00
Voelt als: -1.1°
1013.5 hPa 55.0 mm -0.1°
2
92% warningclass
06:00
Voelt als: -1.3°
1012.7 hPa 55.0 mm -0.3°
2
92% warningclass
09:00
Voelt als: -1.3°
1009.9 hPa 55.4 mm 1.1°
4
92%
12:00
Voelt als: -0.4°
1007.0 hPa 57.0 mm 2.5°
6
92%
15:00
Voelt als: 1.1°
1001.6 hPa 57.4 mm 3.9°
6
84%
18:00
Voelt als: 2.5°
996.4 hPa 118.2 mm 5.2°
6
77%
 08:02     16:43    Daglengte: 8:41 Woensdag 27 Jan
00:00
Voelt als: 5.0°
997.8 hPa 131.0 mm 6.6°
7
47%
06:00
Voelt als: 4.6°
997.9 hPa 131.5 mm 6.8°
7
90%
12:00
Voelt als: 5.6°
999.0 hPa 131.7 mm 7.2°
7
92%
18:00
Voelt als: 3.1°
998.1 hPa 135.8 mm 5.0°
4
4%
 08:00     16:45    Daglengte: 8:45 Donderdag 28 Jan
00:00
Voelt als: 4.1°
995.1 hPa 138.4 mm 5.2°
2
92%
06:00
Voelt als: 2.4°
984.8 hPa 139.8 mm 4.6°
6
92%
12:00
Voelt als: -1.9°
984.4 hPa 141.3 mm 2.1°
8
92%
18:00
Voelt als: 0.1°
995.1 hPa 141.4 mm 0.9°
3
92%
 07:59     16:47    Daglengte: 8:48 Vrijdag 29 Jan
00:00
Voelt als: 1.6°
1012.4 hPa 141.7 mm 0.9°
4
1%
06:00
Voelt als: 3.3°
1010.9 hPa 143.5 mm 4.8°
4
1%
12:00
10°
Voelt als: 7.0°
1009.2 hPa 144.3 mm 6.8°
6
1%
18:00
Voelt als: 5.3°
1004.4 hPa 1.3 mm 5.7°
3
87%
 07:57     16:48    Daglengte: 8:51 Zaterdag 30 Jan
00:00
Voelt als: 5.0°
1003.2 hPa 1.6 mm 6.0°
4
90%
06:00
Voelt als: 5.2°
1000.7 hPa 2.0 mm 6.1°
4
89%
12:00
Voelt als: 5.7°
1000.0 hPa 1.6 mm 5.8°
6
89%
18:00
Voelt als: 4.4°
998.6 hPa 1.1 mm 5.0°
5
87%
 07:56     16:50    Daglengte: 8:54 Zondag 31 Jan
00:00
Voelt als: 3.9°
999.0 hPa 1.4 mm 4.5°
3
83%
06:00
Voelt als: 4.0°
998.0 hPa 1.6 mm 3.9°
2
85%
12:00
Voelt als: 5.1°
998.5 hPa 1.7 mm 4.1°
3
85%
18:00
Voelt als: 3.7°
997.4 hPa 1.3 mm 3.6°
3
87%
 07:54     16:52    Daglengte: 8:58 Maandag 01 Feb
00:00
Voelt als: 3.0°
997.9 hPa 1.5 mm 3.5°
3
76%
06:00
Voelt als: 2.9°
997.6 hPa 0.9 mm 2.9°
2
79%
12:00
Voelt als: 4.9°
997.8 hPa 1.3 mm 3.2°
2
81%
18:00
Voelt als: 4.8°
997.4 hPa 1.1 mm 2.5°
1
79%
 07:52     16:54    Daglengte: 9:02 Dinsdag 02 Feb
00:00
Voelt als: 4.3°
997.7 hPa 1.5 mm 2.7°
1
85%
06:00
Voelt als: 3.7°
998.3 hPa 1.0 mm 1.9°
0
84%
12:00
Voelt als: 5.1°
1000.1 hPa 0.7 mm 2.4°
1
80%
18:00
Voelt als: 4.3°
1001.7 hPa 0.6 mm 1.9°
1
77%
 07:50     16:56    Daglengte: 9:06 Woensdag 03 Feb
00:00
Voelt als: 2.6°
1004.1 hPa 0.5 mm 1.2°
1
73%
06:00
Voelt als: 1.8°
1005.3 hPa 0.7 mm 1.1°
2
76%
12:00
Voelt als: 5.3°
1006.2 hPa 0.4 mm 2.3°
1
78%
18:00
Voelt als: 3.8°
1005.9 hPa 0.5 mm 2.0°
1
74%
  CAPE Lifted Index Hail Supercell Tornado SRH 3km CL BTM PRES CL TOP PRES Swiss DWD icon SMHI TS
 08:13     16:28    Daglengte: 8:15 Vandaag
19:00 0 J/kg 1.3 K 0 % 0 % 0 % 0 m²/s² 0 0 1.54 61
20:00 0 J/kg 1.0 K 0 % 0 % 0 % 0 m²/s² 0 0 1.24 63
21:00 0 J/kg 1.0 K 0 % 0 % 0 % 0 m²/s² 0 0 1.24 61
22:00 0 J/kg 1.2 K 0 % 0 % 0 % 0 m²/s² 0 0 1.44 80
23:00 0 J/kg 0.9 K 0 % 0 % 0 % 0 m²/s² 0 0 1.65 80
 08:12     16:30    Daglengte: 8:18 Morgen
00:00 12 J/kg 1.4 K 0 % 0 % 0 % 0 m²/s² 0 0 1.7 80
01:00 6 J/kg 1.5 K 0 % 0 % 0 % 0 m²/s² 0 0 1.83 80
02:00 3 J/kg 0.6 K 0 % 0 % 0 % 0 m²/s² 0 0 1.14 80
03:00 47 J/kg 1.1 K 0 % 0 % 0 % 0 m²/s² 0 0 2.09 80
04:00 25 J/kg 1.6 K 0 % 0 % 0 % 0 m²/s² 0 0 2.26 61
05:00 35 J/kg 1.8 K 0 % 0 % 0 % 0 m²/s² 0 0 2.82 61
06:00 46 J/kg 1.8 K 0 % 0 % 0 % 0 m²/s² 0 0 2.25 61
07:00 9 J/kg 1.5 K 0 % 0 % 0 % 0 m²/s² 0 0 1.83 61
08:00 21 J/kg 2.0 K 0 % 0 % 0 % 0 m²/s² 0 0 2.3 61
09:00 35 J/kg 2.5 K 0 % 0 % 0 % 0 m²/s² 0 0 2.74 61
10:00 25 J/kg 2.5 K 0 % 0 % 0 % 0 m²/s² 0 0 2.74 61
11:00 24 J/kg 2.6 K 0 % 0 % 0 % 0 m²/s² 0 0 2.84 61
12:00 48 J/kg 2.9 K 0 % 0 % 0 % 0 m²/s² 0 0 3.14 61
13:00 24 J/kg 2.6 K 0 % 0 % 0 % 0 m²/s² 0 0 2.84 80
14:00 27 J/kg 1.9 K 0 % 0 % 0 % 0 m²/s² 0 0 2.35 80
15:00 31 J/kg 1.8 K 0 % 0 % 0 % 0 m²/s² 0 0 2.34 80
16:00 49 J/kg 1.0 K 0 % 0 % 0 % 0 m²/s² 0 0 2.29 3
17:00 26 J/kg 0.1 K 0 % 0 % 0 % 0 m²/s² 0 0 0.94 80
18:00 0 J/kg 0.1 K 0 % 0 % 0 % 0 m²/s² 0 0 1.54 80
19:00 0 J/kg 0.8 K 0 % 0 % 0 % 0 m²/s² 0 0 1.73 80
20:00 0 J/kg 2.2 K 0 % 0 % 0 % 0 m²/s² 0 0 3.52 63
21:00 2 J/kg 3.1 K 0 % 0 % 0 % 0 m²/s² 0 0 4 63
22:00 4 J/kg 4.6 K 0 % 0 % 0 % 0 m²/s² 0 0 4.87 63
23:00 2 J/kg 7.7 K 0 % 0 % 0 % 0 m²/s² 0 0 8.09 63
 08:11     16:31    Daglengte: 8:20 Donderdag 21 Jan
00:00 13 J/kg 8.2 K 0 % 0 % 0 % 0 m²/s² 0 0 8.71 61
01:00 11 J/kg 6.9 K 0 % 0 % 0 % 0 m²/s² 0 0 7.38 61
02:00 29 J/kg 3.5 K 0 % 0 % 0 % 0 m²/s² 0 0 4.01 80
03:00 63 J/kg 2.9 K 0 % 0 % 0 % 0 m²/s² 0 0 3.53 80
04:00 86 J/kg 2.5 K 0 % 0 % 0 % 0 m²/s² 0 0 3.76 80
05:00 52 J/kg 3.0 K 0 % 0 % 0 % 0 m²/s² 0 0 5.94 2
06:00 12 J/kg 3.1 K 0 % 0 % 0 % 0 m²/s² 0 0 4.63 2
07:00 23 J/kg 2.9 K 0 % 0 % 0 % 0 m²/s² 0 0 5.45 80
08:00 47 J/kg 3.0 K 0 % 0 % 0 % 0 m²/s² 0 0 3.57 2
09:00 6 J/kg 3.2 K 0 % 0 % 0 % 0 m²/s² 0 0 3.71 80
10:00 34 J/kg 3.7 K 0 % 0 % 0 % 0 m²/s² 0 0 4.36 80
11:00 27 J/kg 4.2 K 0 % 0 % 0 % 0 m²/s² 0 0 4.74 3
12:00 42 J/kg 3.2 K 0 % 0 % 0 % 0 m²/s² 0 0 3.77 3
13:00 84 J/kg 2.0 K 0 % 0 % 0 % 0 m²/s² 0 0 2.87 80
14:00 79 J/kg 1.9 K 0 % 0 % 0 % 0 m²/s² 0 0 5.95 80
15:00 96 J/kg 1.0 K 0 % 0 % 0 % 0 m²/s² 0 0 4.3 80
16:00 44 J/kg 1.6 K 0 % 0 % 0 % 0 m²/s² 0 0 7.18 80
17:00 47 J/kg 1.0 K 0 % 0 % 0 % 0 m²/s² 0 0 6.55 80
18:00 77 J/kg 0.3 K 0 % 0 % 0 % 0 m²/s² 0 0 4.41 3
19:00 110 J/kg 0.1 K 0 % 0 % 0 % 0 m²/s² 0 0 5.95 3
20:00 112 J/kg 0.1 K 0 % 0 % 0 % 0 m²/s² 0 0 4.75 80
21:00 144 J/kg 0.2 K 0 % 0 % 0 % 0 m²/s² 0 0 3.68 80
22:00 154 J/kg 0.3 K 0 % 0 % 0 % 0 m²/s² 0 0 2.85 80
23:00 198 J/kg 0.2 K 0 % 0 % 0 % 0 m²/s² 0 0 2.21 3
 08:09     16:33    Daglengte: 8:24 Vrijdag 22 Jan
00:00 258 J/kg -0.3 K 0 % 0 % 0 % 0 m²/s² 0 0 1.59 3
01:00 243 J/kg -0.4 K 0 % 0 % 0 % 0 m²/s² 0 0 0.86 3
02:00 164 J/kg -0.2 K 0 % 0 % 0 % 0 m²/s² 0 0 1.63 80
03:00 193 J/kg -0.2 K 0 % 0 % 0 % 0 m²/s² 0 0 1.69 3
04:00 105 J/kg 0.2 K 0 % 0 % 0 % 0 m²/s² 0 0 2.09 3
05:00 139 J/kg 0.1 K 0 % 0 % 0 % 0 m²/s² 0 0 1.87 2
06:00 143 J/kg -0.1 K 0 % 0 % 0 % 0 m²/s² 0 0 3.29 2
07:00 131 J/kg 0.1 K 0 % 0 % 0 % 0 m²/s² 0 0 2.92 2
08:00 85 J/kg 0.5 K 0 % 0 % 0 % 0 m²/s² 0 0 4.55 2
09:00 84 J/kg 0.5 K 0 % 0 % 0 % 0 m²/s² 0 0 3.11 2
10:00 118 J/kg 0.8 K 0 % 0 % 0 % 0 m²/s² 0 0 2.63 2
11:00 283 J/kg -0.8 K 0 % 0 % 0 % 0 m²/s² 0 0 0.4 2
12:00 227 J/kg -0.4 K 0 % 0 % 0 % 0 m²/s² 0 0 2.12 2
13:00 167 J/kg 0.0 K 0 % 0 % 0 % 0 m²/s² 0 0 3.9 2
14:00 191 J/kg -0.5 K 0 % 0 % 0 % 0 m²/s² 0 0 1.09 2
15:00 233 J/kg -0.7 K 0 % 0 % 0 % 0 m²/s² 0 0 1.01 2
16:00 273 J/kg -0.8 K 0 % 0 % 0 % 0 m²/s² 0 0 1.12 2
17:00 165 J/kg 0.1 K 0 % 0 % 0 % 0 m²/s² 0 0 2.26 2
Temp Baro Wind Neerslag
  EWN Forecast EWN WRFDA DWD ICON FMI HIRLAM MET Norway GFS
 08:13     16:28    Daglengte: 8:15 Vandaag
21:00 9.6° 989.1 hPa 7.6 m/s 14.9 mm 9.8° 986.9 hPa 7.5 m/s 66.5 mm 9.4° 989.1 hPa 5.8 m/s 7.2 mm 10.7° 989.3 hPa 10.5 m/s 0.0 mm 9.5° 989.2 hPa 7.4 m/s 10.6° 987.8 hPa 7.1 m/s
 08:12     16:30    Daglengte: 8:18 Morgen
00:00 9.9° 987.2 hPa 7.2 m/s 14.0 mm 9.9° 985.2 hPa 7.2 m/s 76.4 mm 9.9° 986.8 hPa 5.1 m/s 1.6 mm 11.2° 987.4 hPa 9.7 m/s 0.0 mm 9.8° 987.5 hPa 7.0 m/s 10.5° 985.9 hPa 5.9 m/s
03:00 9.9° 985.2 hPa 7.1 m/s 15.9 mm 10.0° 983.1 hPa 6.3 m/s 84.6 mm 9.9° 985.5 hPa 4.2 m/s 1.0 mm 11.3° 985.5 hPa 9.9 m/s 0.0 mm 9.7° 985.4 hPa 7.2 m/s 10.4° 984.2 hPa 5.5 m/s
06:00 9.9° 983.3 hPa 7.0 m/s 16.6 mm 9.9° 982.1 hPa 5.8 m/s 87.1 mm 10.0° 983.2 hPa 4.9 m/s 3.5 mm 11.3° 983.9 hPa 9.0 m/s 0.0 mm 9.5° 983.3 hPa 7.5 m/s 10.1° 983.0 hPa 5.4 m/s
09:00 9.7° 982.0 hPa 6.7 m/s 17.6 mm 9.8° 979.9 hPa 6.1 m/s 96.2 mm 10.1° 981.3 hPa 5.9 m/s 6.2 mm 10.6° 983.9 hPa 6.6 m/s 0.0 mm 9.5° 982.1 hPa 6.8 m/s 10.4° 981.3 hPa 5.8 m/s
12:00 9.6° 979.5 hPa 6.2 m/s 20.6 mm 10.4° 977.5 hPa 7.6 m/s 113.4 mm 10.4° 978.2 hPa 7.7 m/s 2.7 mm 7.7° 983.6 hPa 2.8 m/s 0.0 mm 9.7° 979.4 hPa 5.3 m/s 10.7° 978.8 hPa 6.8 m/s
15:00 9.2° 976.6 hPa 5.9 m/s 21.8 mm 10.8° 972.9 hPa 9.6 m/s 124.6 mm 10.3° 975.8 hPa 5.9 m/s 2.2 mm 7.1° 982.4 hPa 2.6 m/s 0.0 mm 9.4° 976.2 hPa 8.1 m/s 10.9° 975.6 hPa 8.0 m/s
18:00 8.3° 974.8 hPa 5.3 m/s 21.4 mm 7.7° 971.3 hPa 3.8 m/s 134.6 mm 9.9° 973.6 hPa 6.8 m/s 1.1 mm 6.1° 981.6 hPa 2.9 m/s 0.0 mm 9.7° 974.2 hPa 7.6 m/s 11.1° 974.2 hPa 9.6 m/s
21:00 4.8° 973.9 hPa 3.9 m/s 27.1 mm 5.1° 967.5 hPa 5.6 m/s 157.6 mm 5.5° 971.3 hPa 4.0 m/s 10.7 mm 3.9° 981.4 hPa 3.9 m/s 0.0 mm 5.1° 973.5 hPa 3.2 m/s 9.3° 970.8 hPa 6.9 m/s
 08:11     16:31    Daglengte: 8:20 Donderdag 21 Jan
00:00 2.7° 973.3 hPa 4.7 m/s 28.9 mm 3.9° 966.6 hPa 6.3 m/s 171.8 mm 3.4° 971.0 hPa 4.3 m/s 7.0 mm 2.5° 982.4 hPa 3.5 m/s 0.0 mm 2.6° 972.5 hPa 6.4 m/s 4.5° 968.9 hPa 7.6 m/s
03:00 3.2° 975.3 hPa 6.2 m/s 33.7 mm 4.2° 967.6 hPa 10.8 m/s 178.7 mm 3.7° 974.6 hPa 5.9 m/s 2.1 mm 1.6° 984.0 hPa 1.3 m/s 0.0 mm 3.3° 974.5 hPa 7.9 m/s 4.9° 971.6 hPa 9.3 m/s
06:00 2.6° 978.0 hPa 6.2 m/s 12.2 mm 3.9° 969.2 hPa 11.7 m/s 181.9 mm 3.0° 976.8 hPa 4.4 m/s 0.6 mm 2.6° 985.3 hPa 3.6 m/s 0.0 mm 2.5° 977.9 hPa 8.0 m/s 4.8° 975.1 hPa 8.5 m/s
09:00 2.8° 979.0 hPa 6.4 m/s 30.6 mm 4.2° 968.5 hPa 12.4 m/s 182.4 mm 2.7° 976.1 hPa 5.3 m/s 0.5 mm 3.1° 986.8 hPa 4.3 m/s 0.0 mm 2.5° 979.9 hPa 6.2 m/s 4.3° 974.8 hPa 8.4 m/s
12:00 4.4° 979.7 hPa 7.7 m/s 22.4 mm 4.8° 973.1 hPa 10.7 m/s 190.9 mm 5.0° 975.7 hPa 7.5 m/s 0.4 mm 4.9° 986.8 hPa 5.2 m/s 0.0 mm 4.0° 980.0 hPa 7.6 m/s 6.1° 974.2 hPa 10.3 m/s
15:00 4.4° 980.6 hPa 7.4 m/s 32.7 mm 5.4° 975.5 hPa 9.2 m/s 197.2 mm 4.4° 977.3 hPa 6.1 m/s 1.2 mm 4.1° 981.2 hPa 7.5 m/s 4.1° 973.8 hPa 8.6 m/s
18:00 3.7° 982.5 hPa 5.3 m/s 40.4 mm 4.9° 977.2 hPa 6.8 m/s 199.0 mm 4.2° 979.0 hPa 5.1 m/s 0.8 mm 3.6° 983.0 hPa 5.4 m/s 3.7° 975.9 hPa 7.7 m/s
21:00 3.4° 983.8 hPa 5.7 m/s 40.4 mm 4.7° 978.1 hPa 6.6 m/s 199.1 mm 4.2° 980.7 hPa 5.7 m/s 0.9 mm 3.6° 984.3 hPa 6.2 m/s 4.7° 977.3 hPa 7.3 m/s
 08:09     16:33    Daglengte: 8:24 Vrijdag 22 Jan
00:00 3.1° 985.5 hPa 5.3 m/s 26.9 mm 4.6° 978.7 hPa 8.3 m/s 199.7 mm 4.0° 983.1 hPa 6.3 m/s 0.4 mm 3.4° 986.0 hPa 5.3 m/s 4.8° 979.5 hPa 8.1 m/s
03:00 2.6° 987.3 hPa 4.6 m/s 13.5 mm 4.3° 979.5 hPa 7.2 m/s 200.9 mm 3.8° 985.6 hPa 5.7 m/s 0.8 mm 2.7° 987.9 hPa 4.6 m/s 4.8° 981.7 hPa 8.2 m/s
06:00 2.1° 988.8 hPa 3.8 m/s 0.0 mm 3.7° 981.4 hPa 6.1 m/s 201.1 mm 3.6° 987.4 hPa 5.1 m/s 0.6 mm 2.2° 989.5 hPa 3.8 m/s 4.3° 983.3 hPa 7.3 m/s
09:00 2.8° 990.5 hPa 4.5 m/s 0.0 mm 3.5° 982.8 hPa 5.9 m/s 201.2 mm 3.4° 989.2 hPa 4.2 m/s 0.0 mm 3.3° 991.0 hPa 4.9 m/s 4.1° 984.8 hPa 6.2 m/s
12:00 4.3° 992.0 hPa 5.5 m/s 0.0 mm 5.1° 985.2 hPa 8.5 m/s 201.7 mm 5.1° 990.5 hPa 5.0 m/s 0.0 mm 4.4° 992.6 hPa 6.0 m/s 5.7° 987.2 hPa 7.0 m/s
15:00 3.9° 991.6 hPa 5.1 m/s 22.6 mm 5.0° 986.4 hPa 7.0 m/s 202.7 mm 4.5° 991.1 hPa 4.4 m/s 0.2 mm 3.3° 993.1 hPa 5.0 m/s 5.3° 988.0 hPa 5.7 m/s
18:00 2.6° 992.3 hPa 3.9 m/s 68.1 mm 3.7° 987.7 hPa 4.4 m/s 204.0 mm 2.9° 991.8 hPa 2.7 m/s 0.2 mm 2.2° 993.6 hPa 4.0 m/s 3.3° 989.9 hPa 2.8 m/s
21:00 1.6° 993.9 hPa 3.3 m/s 44.2 mm 1.5° 994.2 hPa 3.4 m/s 2.4° 990.9 hPa 1.7 m/s 44.2 mm
 08:08     16:35    Daglengte: 8:27 Zaterdag 23 Jan
00:00 1.2° 994.3 hPa 3.0 m/s 44.2 mm 1.2° 994.5 hPa 3.1 m/s 1.5° 991.9 hPa 1.3 m/s 44.2 mm
03:00 -0.2° 993.6 hPa 2.3 m/s 44.2 mm -0.3° 993.6 hPa 2.5 m/s 1.2° 992.8 hPa 0.7 m/s 44.2 mm
06:00 -1.6° 992.9 hPa 1.8 m/s 44.2 mm -1.9° 992.8 hPa 1.8 m/s 1.3° 994.2 hPa 1.2 m/s 44.2 mm
09:00 0.1° 991.5 hPa 1.2 m/s 44.3 mm 0.0° 991.1 hPa 1.2 m/s 1.3° 995.7 hPa 1.2 m/s 44.3 mm
12:00 2.0° 990.1 hPa 0.9 m/s 44.5 mm 1.9° 989.5 hPa 0.7 m/s 3.7° 996.3 hPa 2.7 m/s 44.5 mm
15:00 1.1° 989.6 hPa 1.4 m/s 44.5 mm 0.8° 989.0 hPa 1.2 m/s 4.1° 995.6 hPa 3.7 m/s 44.5 mm
18:00 -0.0° 989.1 hPa 1.8 m/s 44.6 mm -0.2° 988.5 hPa 1.7 m/s 2.1° 995.7 hPa 3.1 m/s 44.6 mm
21:00 -0.8° 990.6 hPa 1.8 m/s 44.7 mm -1.0° 990.2 hPa 1.6 m/s 1.4° 995.3 hPa 3.2 m/s 44.7 mm
 08:06     16:37    Daglengte: 8:31 Zondag 24 Jan
00:00 -1.6° 992.1 hPa 1.7 m/s 45.0 mm -1.8° 991.9 hPa 1.6 m/s 0.8° 994.6 hPa 3.1 m/s 45.0 mm
03:00 -2.1° 993.9 hPa 2.0 m/s 46.2 mm -2.4° 993.9 hPa 2.0 m/s 0.7° 993.8 hPa 2.2 m/s 46.2 mm
06:00 -2.6° 995.7 hPa 2.4 m/s 46.8 mm -2.9° 995.9 hPa 2.4 m/s 0.8° 993.5 hPa 1.8 m/s 46.8 mm
09:00 -0.1° 997.2 hPa 2.5 m/s 46.9 mm -0.2° 997.6 hPa 2.3 m/s 0.6° 992.8 hPa 4.0 m/s 46.9 mm
12:00 2.4° 998.7 hPa 2.3 m/s 51.8 mm 2.5° 999.3 hPa 2.3 m/s 1.5° 992.3 hPa 2.8 m/s 51.8 mm
15:00 1.5° 998.9 hPa 2.7 m/s 53.1 mm 1.3° 999.4 hPa 2.5 m/s 3.5° 993.6 hPa 4.8 m/s 53.1 mm
18:00 0.3° 999.2 hPa 2.9 m/s 53.7 mm 0.1° 999.5 hPa 2.8 m/s 2.9° 995.9 hPa 4.3 m/s 53.7 mm
21:00 0.4° 1000.0 hPa 2.5 m/s 54.0 mm 0.2° 1000.1 hPa 2.3 m/s 2.8° 997.8 hPa 4.0 m/s 54.0 mm
 08:05     16:39    Daglengte: 8:34 Maandag 25 Jan
00:00 0.4° 1000.7 hPa 2.1 m/s 54.1 mm 0.2° 1000.8 hPa 1.9 m/s 2.7° 1000.0 hPa 4.2 m/s 54.1 mm
03:00 0.6° 1001.9 hPa 1.5 m/s 54.4 mm 0.4° 1001.8 hPa 1.2 m/s 2.8° 1002.5 hPa 4.6 m/s 54.4 mm
06:00 0.9° 1002.9 hPa 0.9 m/s 54.5 mm 0.7° 1002.8 hPa 0.6 m/s 3.0° 1004.4 hPa 4.7 m/s 54.5 mm
09:00 1.7° 1006.0 hPa 1.3 m/s 54.6 mm 1.5° 1005.9 hPa 1.0 m/s 3.5° 1006.7 hPa 4.2 m/s 54.6 mm
12:00 2.5° 1009.0 hPa 1.7 m/s 54.7 mm 2.3° 1009.0 hPa 1.4 m/s 5.0° 1008.6 hPa 4.6 m/s 54.7 mm
15:00 1.9° 1010.2 hPa 2.1 m/s 54.8 mm 1.7° 1010.2 hPa 1.8 m/s 4.5° 1009.7 hPa 4.7 m/s 54.8 mm
18:00 1.3° 1011.6 hPa 2.3 m/s 54.9 mm 1.1° 1011.5 hPa 2.3 m/s 3.2° 1012.3 hPa 2.8 m/s 54.9 mm
21:00 1.2° 1012.9 hPa 2.0 m/s 55.0 mm 1.1° 1012.8 hPa 2.0 m/s 2.4° 1014.1 hPa 2.1 m/s 55.0 mm
 08:04     16:41    Daglengte: 8:37 Dinsdag 26 Jan
00:00 1.1° 1014.1 hPa 1.7 m/s 55.0 mm 1.0° 1014.1 hPa 1.7 m/s 1.8° 1014.6 hPa 1.9 m/s 55.0 mm
03:00 1.0° 1013.5 hPa 1.9 m/s 55.0 mm 1.0° 1013.5 hPa 1.9 m/s 1.4° 1013.9 hPa 2.4 m/s 55.0 mm
06:00 1.1° 1012.7 hPa 2.1 m/s 55.0 mm 1.0° 1012.9 hPa 2.0 m/s 2.1° 1011.0 hPa 3.1 m/s 55.0 mm
09:00 2.4° 1009.9 hPa 4.1 m/s 55.4 mm 2.4° 1010.1 hPa 3.9 m/s 3.5° 1007.0 hPa 6.1 m/s 55.4 mm
12:00 3.9° 1007.0 hPa 5.8 m/s 57.0 mm 3.7° 1007.4 hPa 5.8 m/s 6.3° 1003.0 hPa 6.2 m/s 57.0 mm
15:00 5.2° 1001.6 hPa 6.0 m/s 57.4 mm 5.0° 1001.8 hPa 6.2 m/s 8.1° 1000.4 hPa 4.9 m/s 57.4 mm
18:00 6.3° 996.4 hPa 6.2 m/s 60.8 mm 6.2° 996.1 hPa 6.5 m/s 7.9° 1000.1 hPa 3.5 m/s 60.8 mm
 08:02     16:43    Daglengte: 8:41 Woensdag 27 Jan
00:00 8.5° 997.8 hPa 7.1 m/s 65.7 mm 8.7° 997.2 hPa 7.4 m/s 6.6° 1003.8 hPa 4.3 m/s 65.7 mm
06:00 8.2° 997.9 hPa 7.0 m/s 65.8 mm 8.2° 997.3 hPa 7.1 m/s 7.9° 1005.1 hPa 6.3 m/s 65.8 mm
12:00 8.9° 999.0 hPa 6.9 m/s 65.8 mm 8.9° 998.3 hPa 7.1 m/s 9.2° 1006.3 hPa 4.4 m/s 65.9 mm
18:00 6.0° 998.1 hPa 3.9 m/s 69.1 mm 5.8° 997.6 hPa 4.0 m/s 8.4° 1003.6 hPa 3.3 m/s 69.1 mm
 08:00     16:45    Daglengte: 8:45 Donderdag 28 Jan
00:00 5.5° 995.1 hPa 1.9 m/s 69.2 mm 5.3° 994.6 hPa 1.9 m/s 7.4° 1000.2 hPa 1.5 m/s 69.2 mm
06:00 6.2° 984.8 hPa 6.1 m/s 70.1 mm 6.1° 984.0 hPa 6.0 m/s 7.3° 993.3 hPa 6.8 m/s 70.1 mm
12:00 3.4° 984.4 hPa 7.9 m/s 70.7 mm 3.1° 982.8 hPa 8.1 m/s 6.1° 1002.0 hPa 5.9 m/s 70.7 mm
18:00 3.3° 995.1 hPa 3.4 m/s 70.7 mm 3.1° 993.8 hPa 3.6 m/s 5.1° 1009.0 hPa 1.3 m/s 70.7 mm
 07:59     16:47    Daglengte: 8:48 Vrijdag 29 Jan
00:00 4.6° 1012.4 hPa 3.6 m/s 71.0 mm 4.6° 1012.4 hPa 3.6 m/s 71.0 mm
06:00 6.1° 1010.9 hPa 3.9 m/s 72.1 mm 6.1° 1010.9 hPa 3.9 m/s 72.1 mm
12:00 9.8° 1009.2 hPa 5.7 m/s 72.2 mm 9.8° 1009.2 hPa 5.7 m/s 72.2 mm
18:00 7.4° 1004.4 hPa 3.3 m/s 1.3 mm
 07:57     16:48    Daglengte: 8:51 Zaterdag 30 Jan
00:00 7.4° 1003.2 hPa 3.5 m/s 1.6 mm
06:00 7.6° 1000.7 hPa 3.8 m/s 2.0 mm
12:00 8.7° 1000.0 hPa 5.6 m/s 1.6 mm
18:00 7.3° 998.6 hPa 4.7 m/s 1.1 mm
 07:56     16:50    Daglengte: 8:54 Zondag 31 Jan
00:00 6.3° 999.0 hPa 3.4 m/s 1.4 mm
06:00 5.7° 998.0 hPa 2.2 m/s 1.6 mm
12:00 7.2° 998.5 hPa 3.0 m/s 1.7 mm
18:00 5.9° 997.4 hPa 2.9 m/s 1.3 mm
 07:54     16:52    Daglengte: 8:58 Maandag 01 Feb
00:00 5.3° 997.9 hPa 2.9 m/s 1.5 mm
06:00 4.7° 997.6 hPa 2.1 m/s 0.9 mm
12:00 6.1° 997.8 hPa 1.7 m/s 1.3 mm
18:00 4.8° 997.4 hPa 0.5 m/s 1.1 mm
 07:52     16:54    Daglengte: 9:02 Dinsdag 02 Feb
00:00 4.3° 997.7 hPa 0.5 m/s 1.5 mm
06:00 3.7° 998.3 hPa 0.4 m/s 1.0 mm
12:00 5.3° 1000.1 hPa 1.0 m/s 0.7 mm
18:00 4.3° 1001.7 hPa 0.7 m/s 0.6 mm
 07:50     16:56    Daglengte: 9:06 Woensdag 03 Feb
00:00 3.5° 1004.1 hPa 1.3 m/s 0.5 mm
06:00 3.2° 1005.3 hPa 1.6 m/s 0.7 mm
12:00 5.5° 1006.2 hPa 0.9 m/s 0.4 mm
18:00 4.5° 1005.9 hPa 1.2 m/s 0.5 mm
FMI Hirlam - 7.5 km EWN WRFDA - 12 km DWD ICON - 7 km GFS - 25 km Basiskaart






























































Updatetijd (Europe/Amsterdam) Resolutie Lengte Stap
FMI Hirlam 18:15, 00:15, 06:15, 12:15 7.5 km 49h 1h
EWN WRFDA 15:30, 21:30, 03:30, 09:30 12 km 73h 1h
DWD ICON 17:15, 23:15, 05:15, 11:15 7 km 75h 1h
GFS 18:45, 00:45, 06:45, 12:45 25 km 237h 3h
30+ mm
25-30 mm
20-25 mm
15-20 mm
10-15 mm
6-10 mm
4-6 mm
2-4 mm
1-2 mm
0.5-1 mm
0.2-0.5 mm
0.1-0.2 mm
30+ mm
25-30 mm
20-25 mm
15-20 mm
10-15 mm
6-10 mm
4-6 mm
2-4 mm
1-2 mm
0.5-1 mm
0.2-0.5 mm
0.1-0.2 mm
Sneeuwval
Natte sneeuw
Hagel
Vorst
30+ mm
25-30 mm
20-25 mm
15-20 mm
10-15 mm
6-10 mm
4-6 mm
2-4 mm
1-2 mm
0.5-1 mm
0.2-0.5 mm
0.1-0.2 mm
Sneeuwval
Natte sneeuw
Hagel
Vorst
Onweer
50 mm
40 mm
30 mm
26 mm
22 mm
18 mm
14 mm
10 mm
9 mm
8 mm
7 mm
6 mm
5 mm
4.5 mm
4 mm
3.5 mm
3 mm
2.5 mm
2 mm
1.5 mm
1 mm
0.8 mm
0.6 mm
0.4 mm
0.2 mm
0.05 mm